When you browse on this site, cookies collect data to enhance your experience and personalize the content and advertising you see.
Visit our Privacy Policy to learn more. By continuing to use the site, you agree to this use of cookies and data.
  • In United Kingdom
  • List of Countries
  • For 7 days
  • Water Temperature
  • Satellite Maps
  • Weather Map
  • Weather Widgets
  • user-avatar
    Login

    Hourly Weather Belmopan

    Today, 22 May, Wednesday

    Time Temperature Precipitation Wind Pressure Humidity
    00:00 +27°C° 0 mm 1 mps 749 mmHg 93%
    01:00 +27°C° 0 mm 1 mps 749 mmHg 94%
    02:00 +26°C° 0 mm 1 mps 749 mmHg 95%
    03:00 +26°C° 0 mm 1 mps 749 mmHg 96%
    04:00 +26°C° 0 mm 1 mps 749 mmHg 96%
    05:00 +26°C° 0 mm 1 mps 749 mmHg 95%
    06:00 +27°C° 0 mm 1 mps 749 mmHg 95%
    07:00 +28°C° 0.1 mm 1 mps 749 mmHg 85%
    08:00 +30°C° 0.1 mm 2 mps 750 mmHg 76%
    09:00 +32°C° 0.1 mm 2 mps 750 mmHg 66%
    10:00 +34°C° 0.2 mm 3 mps 750 mmHg 62%
    11:00 +35°C° 0.2 mm 3 mps 750 mmHg 58%
    12:00 +36°C° 0.2 mm 3 mps 750 mmHg 54%
    13:00 +36°C° 0.1 mm 3 mps 749 mmHg 55%
    14:00 +36°C° 0.1 mm 3 mps 749 mmHg 55%
    15:00 +35°C° 0.1 mm 4 mps 748 mmHg 56%
    16:00 +34°C° 0.1 mm 3 mps 749 mmHg 63%
    17:00 +31°C° 0.1 mm 3 mps 749 mmHg 70%
    18:00 +29°C° 0.1 mm 3 mps 749 mmHg 76%
    19:00 +29°C° 0 mm 2 mps 750 mmHg 80%
    20:00 +28°C° 0 mm 2 mps 750 mmHg 84%
    21:00 +27°C° 0 mm 2 mps 751 mmHg 88%
    22:00 +27°C° 0 mm 2 mps 751 mmHg 89%
    23:00 +27°C° 0 mm 2 mps 751 mmHg 90%

    Tomorrow, 23 May, Thursday

    Time Temperature Precipitation Wind Pressure Humidity
    00:00 +27°C° 0 mm 1 mps 751 mmHg 91%
    01:00 +26°C° 0 mm 1 mps 751 mmHg 92%
    02:00 +26°C° 0 mm 1 mps 751 mmHg 93%
    03:00 +26°C° 0 mm 1 mps 750 mmHg 94%
    04:00 +26°C° 0.1 mm 1 mps 750 mmHg 94%
    05:00 +26°C° 0.1 mm 1 mps 751 mmHg 93%
    06:00 +26°C° 0.1 mm 1 mps 751 mmHg 92%
    07:00 +28°C° 0.1 mm 2 mps 751 mmHg 82%
    08:00 +30°C° 0.1 mm 2 mps 752 mmHg 73%
    09:00 +33°C° 0.1 mm 3 mps 752 mmHg 63%
    10:00 +34°C° 0.1 mm 3 mps 752 mmHg 60%
    11:00 +35°C° 0.1 mm 3 mps 751 mmHg 56%
    12:00 +36°C° 0.1 mm 4 mps 751 mmHg 52%
    13:00 +35°C° 0.1 mm 4 mps 751 mmHg 53%
    14:00 +35°C° 0.1 mm 4 mps 750 mmHg 54%
    15:00 +35°C° 0.1 mm 4 mps 750 mmHg 55%
    16:00 +33°C° 0.1 mm 3 mps 750 mmHg 61%
    17:00 +31°C° 0.1 mm 3 mps 750 mmHg 68%
    18:00 +29°C° 0.1 mm 3 mps 750 mmHg 74%
    19:00 +28°C° 0.1 mm 2 mps 751 mmHg 80%
    20:00 +27°C° 0.1 mm 2 mps 751 mmHg 87%
    21:00 +26°C° 0.1 mm 1 mps 752 mmHg 93%
    22:00 +26°C° 0.1 mm 1 mps 752 mmHg 94%
    23:00 +25°C° 0.1 mm 1 mps 752 mmHg 96%

    Day after tomorrow, 24 May, Friday

    Time Temperature Precipitation Wind Pressure Humidity
    00:00 +25°C° 0.1 mm 1 mps 752 mmHg 97%
    01:00 +25°C° 0.1 mm 1 mps 751 mmHg 97%
    02:00 +25°C° 0.1 mm 1 mps 751 mmHg 97%
    03:00 +23°C° 0.1 mm 0 mps 750 mmHg 98%
    04:00 +23°C° 0.1 mm 0 mps 750 mmHg 97%
    05:00 +23°C° 0.1 mm 0 mps 751 mmHg 96%
    06:00 +23°C° 0.1 mm 0 mps 751 mmHg 96%
    07:00 +27°C° 0.2 mm 1 mps 751 mmHg 87%
    08:00 +29°C° 0.2 mm 1 mps 752 mmHg 79%
    09:00 +31°C° 0.2 mm 2 mps 752 mmHg 71%
    10:00 +32°C° 0.3 mm 2 mps 752 mmHg 67%
    11:00 +33°C° 0.3 mm 3 mps 752 mmHg 64%
    12:00 +34°C° 0.3 mm 3 mps 751 mmHg 60%
    13:00 +34°C° 0.4 mm 3 mps 751 mmHg 61%
    14:00 +34°C° 0.4 mm 3 mps 750 mmHg 61%
    15:00 +34°C° 0.4 mm 3 mps 750 mmHg 62%
    16:00 +31°C° 0.1 mm 3 mps 750 mmHg 67%
    17:00 +30°C° 0.1 mm 2 mps 750 mmHg 72%
    18:00 +29°C° 0.1 mm 2 mps 750 mmHg 77%
    19:00 +28°C° 0 mm 1 mps 751 mmHg 84%
    20:00 +27°C° 0 mm 1 mps 751 mmHg 90%
    21:00 +26°C° 0 mm 1 mps 752 mmHg 96%
    22:00 +25°C° 0.1 mm 1 mps 752 mmHg 97%
    23:00 +23°C° 0.1 mm 0 mps 752 mmHg 97%

    25 May, Saturday

    Time Temperature Precipitation Wind Pressure Humidity
    00:00 +23°C° 0.1 mm 0 mps 752 mmHg 98%
    01:00 +23°C° 0.1 mm 0 mps 752 mmHg 98%
    02:00 +23°C° 0.1 mm 0 mps 751 mmHg 98%
    03:00 +23°C° 0.1 mm 0 mps 750 mmHg 98%
    04:00 +23°C° 0.1 mm 0 mps 751 mmHg 98%
    05:00 +23°C° 0.1 mm 0 mps 751 mmHg 97%
    06:00 +23°C° 0.1 mm 0 mps 751 mmHg 97%
    07:00 +25°C° 0.2 mm 0 mps 752 mmHg 87%
    08:00 +29°C° 0.2 mm 1 mps 752 mmHg 78%
    09:00 +31°C° 0.2 mm 1 mps 753 mmHg 69%
    10:00 +32°C° 0.2 mm 2 mps 752 mmHg 61%
    11:00 +35°C° 0.2 mm 2 mps 752 mmHg 54%
    12:00 +36°C° 0.2 mm 2 mps 752 mmHg 46%
    13:00 +36°C° 0 mm 2 mps 751 mmHg 45%
    14:00 +36°C° 0 mm 3 mps 750 mmHg 43%
    15:00 +37°C° 0 mm 3 mps 750 mmHg 42%
    16:00 +35°C° 0 mm 3 mps 750 mmHg 49%
    17:00 +32°C° 0 mm 2 mps 750 mmHg 56%
    18:00 +31°C° 0 mm 2 mps 750 mmHg 62%
    19:00 +29°C° 0 mm 2 mps 751 mmHg 72%
    20:00 +27°C° 0 mm 1 mps 752 mmHg 82%
    21:00 +26°C° 0 mm 1 mps 752 mmHg 92%
    22:00 +26°C° 0 mm 1 mps 752 mmHg 94%
    23:00 +23°C° 0 mm 0 mps 752 mmHg 96%

    26 May, Sunday

    Time Temperature Precipitation Wind Pressure Humidity
    00:00 +23°C° 0 mm 0 mps 752 mmHg 98%
    01:00 +23°C° 0 mm 0 mps 752 mmHg 98%
    02:00 +23°C° 0 mm 0 mps 751 mmHg 98%
    03:00 +23°C° 0 mm 0 mps 751 mmHg 98%
    04:00 +23°C° 0 mm 0 mps 751 mmHg 98%
    05:00 +23°C° 0 mm 0 mps 751 mmHg 97%
    06:00 +23°C° 0 mm 0 mps 752 mmHg 96%
    07:00 +25°C° 0 mm 0 mps 752 mmHg 84%
    08:00 +30°C° 0 mm 1 mps 753 mmHg 72%
    09:00 +32°C° 0 mm 1 mps 753 mmHg 60%
    10:00 +33°C° 0.1 mm 1 mps 753 mmHg 54%
    11:00 +36°C° 0.1 mm 2 mps 752 mmHg 48%
    12:00 +37°C° 0.1 mm 2 mps 752 mmHg 42%
    13:00 +37°C° 0.1 mm 2 mps 751 mmHg 42%
    14:00 +37°C° 0.1 mm 2 mps 751 mmHg 43%
    15:00 +36°C° 0.1 mm 3 mps 750 mmHg 43%
    16:00 +35°C° 0.1 mm 2 mps 750 mmHg 50%
    17:00 +32°C° 0.1 mm 2 mps 751 mmHg 57%
    18:00 +30°C° 0.1 mm 2 mps 751 mmHg 64%
    19:00 +29°C° 0.1 mm 2 mps 751 mmHg 73%
    20:00 +27°C° 0.1 mm 1 mps 752 mmHg 81%
    21:00 +26°C° 0.1 mm 1 mps 752 mmHg 89%
    22:00 +25°C° 0 mm 1 mps 752 mmHg 92%
    23:00 +23°C° 0 mm 0 mps 752 mmHg 95%

    27 May, Monday

    Time Temperature Precipitation Wind Pressure Humidity
    00:00 +23°C° 0 mm 0 mps 752 mmHg 98%
    01:00 +23°C° 0 mm 0 mps 752 mmHg 98%
    02:00 +23°C° 0 mm 0 mps 751 mmHg 98%
    03:00 +22°C° 0 mm 0 mps 751 mmHg 98%
    04:00 +23°C° 0 mm 0 mps 751 mmHg 98%
    05:00 +23°C° 0 mm 0 mps 751 mmHg 97%
    06:00 +23°C° 0 mm 0 mps 752 mmHg 96%
    07:00 +25°C° 0 mm 0 mps 752 mmHg 84%
    08:00 +30°C° 0 mm 1 mps 752 mmHg 72%
    09:00 +32°C° 0 mm 1 mps 752 mmHg 59%
    10:00 +33°C° 0.2 mm 1 mps 752 mmHg 57%
    11:00 +34°C° 0.2 mm 1 mps 751 mmHg 54%
    12:00 +36°C° 0.2 mm 2 mps 751 mmHg 51%
    13:00 +36°C° 0.4 mm 2 mps 750 mmHg 52%
    14:00 +36°C° 0.4 mm 2 mps 750 mmHg 52%
    15:00 +35°C° 0.4 mm 2 mps 749 mmHg 53%
    16:00 +34°C° 0 mm 2 mps 749 mmHg 57%
    17:00 +32°C° 0 mm 2 mps 749 mmHg 62%
    18:00 +30°C° 0 mm 2 mps 749 mmHg 67%
    19:00 +29°C° 0 mm 2 mps 750 mmHg 74%
    20:00 +28°C° 0 mm 1 mps 750 mmHg 81%
    21:00 +26°C° 0 mm 1 mps 751 mmHg 89%
    22:00 +26°C° 0 mm 1 mps 750 mmHg 91%
    23:00 +25°C° 0 mm 1 mps 750 mmHg 94%
    Show more